Flag for Poland Weather past 2 weeks in Warsaw, Poland

34 °F

Light rain. Low clouds.

Feels Like: 25 °F
Forecast: 36 / 40 °F
Wind: 12 mph from Northwest

Location: Warsaw Okecie Airport

Current Time: Dec 1, 2015 at 8:38:41 AM

Latest Report: Dec 1, 2015 at 8:00 AM

Visibility: 5 mi

Pressure: 29.68 "Hg

Humidity: 93%

Dew point: 32 °F

Location of WarsawLocation

Historic Weather in Warsaw — Graph


Warsaw temperature yesterday

Maximum temperature yesterday: 45 °F (at 5:30 AM)
Minimum temperature yesterday: 39 °F (at 12:00 AM)
Average temperature yesterday: 41 °F

Past Weeks' High & Low Weather Summary

High55 °F (Nov 18, 9:30 AM)100% (Nov 16, 7:30 AM)30.27 "Hg (Nov 16, 7:30 AM)
Low21 °F (Nov 25, 2:00 AM)61% (Nov 29, 11:30 AM)29.30 "Hg (Nov 21, 6:30 AM)
Average38 °F87%29.79 "Hg
* Reported Nov 16 7:00 AM — Dec 1 7:30 AM, Warsaw, Weather by CustomWeather, © 2015

Note: Actual official high and low records may vary slightly from our data, if they occured in-between our weather recording intervals... More about our weather records


Warsaw weather history for previous 24 hours

Time TempWeatherWind HumidityBarometerVisibility
7:30 AM
Tue, Dec 1
32 °FLight snow. Low clouds.9 mph100%29.65 "Hg2 mi
7:00 AM34 °FLight snow. Passing clouds.6 mph93%29.65 "Hg4 mi
6:30 AM32 °FLight snow. Mostly cloudy.3 mph100%29.62 "Hg4 mi
6:00 AM32 °FLight snow. Ice fog.No wind100%29.59 "Hg2 mi
5:30 AM32 °FLight snow. Ice fog.2 mph100%29.59 "Hg2 mi
5:00 AM32 °FLight snow. Ice fog.1 mph100%29.62 "Hg2 mi
4:30 AM32 °FLight snow. Ice fog.2 mph100%29.59 "Hg2 mi
4:00 AM32 °FLight snow. Ice fog.2 mph100%29.62 "Hg3 mi
3:30 AM34 °FLight snow. Passing clouds.3 mph93%29.62 "Hg6 mi
3:00 AM34 °FLight rain. Low clouds.6 mph93%29.65 "HgN/A
2:30 AM36 °FLight rain. Mostly cloudy.8 mph93%29.65 "HgN/A
2:00 AM37 °FLight rain. Passing clouds.14 mph87%29.68 "HgN/A
1:00 AM39 °FPassing clouds.9 mph75%29.68 "HgN/A
12:30 AM39 °FPassing clouds.10 mph75%29.68 "HgN/A
12:00 AM41 °FPassing clouds.8 mph70%29.71 "HgN/A
11:30 PM
Mon, Nov 30
41 °FPassing clouds.9 mph70%29.71 "HgN/A
11:00 PM41 °FPassing clouds.10 mph70%29.71 "HgN/A
10:30 PM41 °FPassing clouds.13 mph70%29.74 "HgN/A
10:00 PM39 °FPassing clouds.12 mph75%29.74 "HgN/A
9:30 PM39 °FPassing clouds.10 mph75%29.74 "HgN/A
9:00 PM41 °FPassing clouds.13 mph70%29.74 "HgN/A
8:30 PM39 °FPassing clouds.14 mph75%29.77 "HgN/A
8:00 PM39 °FPassing clouds.15 mph75%29.77 "HgN/A
7:30 PM39 °FPassing clouds.16 mph75%29.77 "HgN/A
7:00 PM39 °FPassing clouds.17 mph75%29.77 "HgN/A
6:30 PM41 °FPassing clouds.18 mph70%29.77 "HgN/A
6:00 PM41 °FPassing clouds.16 mph70%29.77 "HgN/A
5:30 PM41 °FPassing clouds.15 mph70%29.77 "HgN/A
5:00 PM41 °FPassing clouds.20 mph70%29.77 "HgN/A
4:30 PM41 °FPassing clouds.20 mph76%29.77 "HgN/A
4:00 PM41 °FPassing clouds.20 mph76%29.77 "HgN/A
3:30 PM43 °FPassing clouds.21 mph66%29.74 "HgN/A
3:00 PM43 °FPartly sunny.23 mph71%29.74 "HgN/A
2:30 PM43 °FBroken clouds.22 mph71%29.74 "HgN/A
2:00 PM43 °FScattered clouds.21 mph71%29.71 "HgN/A
1:30 PM43 °FPartly sunny.22 mph71%29.71 "HgN/A
1:00 PM43 °FPartly sunny.24 mph71%29.71 "HgN/A
12:30 PM43 °FBroken clouds.18 mph76%29.71 "HgN/A
12:00 PM41 °FSprinkles. Partly sunny.20 mph81%29.68 "HgN/A
11:30 AM41 °FPartly sunny.21 mph76%29.68 "HgN/A
11:00 AM41 °FPartly sunny.25 mph81%29.68 "HgN/A
10:30 AM39 °FScattered clouds.24 mph87%29.65 "HgN/A
10:00 AM41 °FSprinkles. Scattered clouds.23 mph87%29.65 "HgN/A
9:30 AM43 °FPartly sunny.23 mph76%29.62 "HgN/A
9:00 AM41 °FPartly sunny.20 mph81%29.62 "HgN/A
8:30 AM41 °FPassing clouds.24 mph87%29.59 "HgN/A
8:00 AM41 °FScattered clouds.17 mph87%29.56 "HgN/A
Weather by CustomWeather, © 2015

See weather overviewHow to use our weather pages